HYLAS 4

Last updated on Sun Apr 12 2026 00:02:55 GMT+0000 (Coordinated Universal Time)

1 43272U 18033B 26101.44276832 -.00000233 00000+0 00000+0 0 9996 2 43272 0.0442 75.5741 0001464 340.6342 269.2401 1.00270103 29397
UTC large
Height (km)
Speed (km/s)
/
Latitude / Longitude
Inclination (degrees)
Orbital Period (minutes)
Azimuth
Elevation
Range (km)
Doppler Factor

Next 0 passes for location: London (51.5072 / 0.1276)

Sorry there are no passes over London.
HYLAS 4